Weather History for Cagliari, Italy

Change the Weather History Date:

Tuesday, September 4, 2012

  Actual Average Record
Temperature  
Mean Temperature 71 °F -  
Max Temperature 80 °F 79 °F 89 °F (1998)
Min Temperature 62 °F 62 °F 59 °F (1996)
Cooling Degree Days 6    
Growing Degree Days 21 (Base 50)    
Moisture  
Dew Point 60 °F    
Average Humidity 70    
Maximum Humidity 88    
Minimum Humidity 40    
Precipitation  
Precipitation 0.01 in 0.04 in - ()
Sea Level Pressure  
Sea Level Pressure 29.84 in    
Wind  
Wind Speed 9 mph ()    
Max Wind Speed 23 mph    
Max Gust Speed -    
Visibility 6.6 miles    
Events Rain    
Averages and records for this station are not official NWS values.
T = Trace of Precipitation, MM = Missing Value Source: Averaged Metar Reports

Daily Weather History Graph

Daily Weather History Graph

Search for Another Location

Airport:

Trip Planner

Search our weather history database for the weather conditions in past years. The results will help you decide how hot, cold, wet, or windy it might be!

Date:

Astronomy

Sep. 04, 2012 Rise Set
Actual Time 6:55 AM CEST 7:49 PM CEST
Civil Twilight 6:27 AM CEST 8:16 PM CEST
Nautical Twilight 5:55 AM CEST 8:48 PM CEST
Astronomical Twilight 5:21 AM CEST 9:22 PM CEST
Moon 9:35 PM CEST (9/4) 10:44 AM CEST (9/4)
Length of Visible Light 13h 48m
Length of Day
12h 54m
Waning Gibbous, 85% of the Moon is Illuminated
Sep 4
Waning Gibbous
Sep 8
Last Quarter
Sep 16
New
Sep 22
First Quarter
Sep 30
Full

Hourly Weather History & Observations

Time (CEST) Temp. Dew Point Humidity Pressure Visibility Wind Dir Wind Speed Gust Speed Precip Events Conditions
12:15 AM 66.2 °F 59.0 °F 78% 29.83 in 6.2 mi ENE 4.6 mph - N/A   Scattered Clouds
12:45 AM 66.2 °F 60.8 °F 83% 29.80 in 6.2 mi South 5.8 mph - N/A   Scattered Clouds
12:55 AM 66.2 °F 60.8 °F 83% 29.80 in 6.2 mi South 5.8 mph - N/A   Scattered Clouds
1:15 AM 66.2 °F 60.8 °F 83% 29.80 in 6.2 mi South 4.6 mph - N/A   Scattered Clouds
1:45 AM 66.2 °F 60.8 °F 83% 29.80 in 6.2 mi WNW 2.3 mph - N/A   Scattered Clouds
1:55 AM 66.2 °F 60.8 °F 83% 29.80 in 6.2 mi WNW 2.3 mph - N/A   Scattered Clouds
2:00 AM 67 °F 62 °F 77% 29.81 in 6 mi WNW 2.3 mph - -   Partly Cloudy
2:15 AM 66.2 °F 60.8 °F 83% 29.80 in 6.2 mi NNE 2.3 mph - N/A   Scattered Clouds
2:45 AM 64.4 °F 59.0 °F 83% 29.80 in 6.2 mi NW 5.8 mph - N/A   Scattered Clouds
2:55 AM 64.4 °F 59.0 °F 83% 29.80 in 6.2 mi NW 5.8 mph - N/A   Scattered Clouds
3:15 AM 64.4 °F 59.0 °F 83% 29.80 in 6.2 mi NW 5.8 mph - N/A   Scattered Clouds
3:45 AM 64.4 °F 57.2 °F 77% 29.80 in 6.2 mi NW 11.5 mph - N/A   Scattered Clouds
3:55 AM 64.4 °F 57.2 °F 77% 29.80 in 6.2 mi NW 11.5 mph - N/A   Scattered Clouds
4:15 AM 64.4 °F 57.2 °F 77% 29.80 in 6.2 mi NW 11.5 mph - N/A   Scattered Clouds
4:45 AM 64.4 °F 59.0 °F 83% 29.80 in 6.2 mi NW 10.4 mph - N/A   Scattered Clouds
4:55 AM 64.4 °F 59.0 °F 83% 29.80 in 6.2 mi NW 10.4 mph - N/A   Scattered Clouds
5:00 AM 64 °F 60 °F 81% 29.81 in 9 mi NW 10.4 mph - -   Mostly Cloudy
5:15 AM 64.4 °F 57.2 °F 77% 29.80 in 6.2 mi NW 9.2 mph - N/A   Scattered Clouds
5:45 AM 64.4 °F 59.0 °F 83% 29.80 in 6.2 mi NW 5.8 mph - N/A   Scattered Clouds
6:15 AM 64.4 °F 59.0 °F 83% 29.80 in 6.2 mi NW 5.8 mph - N/A   Scattered Clouds
6:45 AM 64.4 °F 59.0 °F 83% 29.83 in 6.2 mi NW 8.1 mph - N/A   Scattered Clouds
6:55 AM 64.4 °F 59.0 °F 83% 29.83 in 6.2 mi NW 8.1 mph - N/A   Scattered Clouds
7:15 AM 64.4 °F 57.2 °F 77% 29.83 in 6.2 mi NW 5.8 mph - N/A   Scattered Clouds
7:45 AM 64.4 °F 59.0 °F 83% 29.83 in 6.2 mi NW 8.1 mph - N/A   Partly Cloudy
7:55 AM 64.4 °F 59.0 °F 83% 29.83 in 6.2 mi NW 8.1 mph - N/A   Partly Cloudy
8:00 AM 65 °F 60 °F 77% 29.84 in 9 mi NW 8.1 mph - -   Partly Cloudy
8:15 AM 66.2 °F 60.8 °F 83% 29.83 in 6.2 mi WNW 9.2 mph - N/A   Partly Cloudy
8:45 AM 68.0 °F 62.6 °F 83% 29.83 in 6.2 mi WNW 10.4 mph - N/A   Partly Cloudy
8:55 AM 68.0 °F 62.6 °F 83% 29.83 in 6.2 mi WNW 10.4 mph - N/A   Partly Cloudy
9:15 AM 69.8 °F 60.8 °F 73% 29.83 in 6.2 mi WNW 10.4 mph - N/A   Partly Cloudy
9:45 AM 71.6 °F 59.0 °F 64% 29.83 in 6.2 mi NW 8.1 mph - N/A   Partly Cloudy
9:55 AM 71.6 °F 59.0 °F 64% 29.83 in 6.2 mi NW 8.1 mph - N/A   Partly Cloudy
10:15 AM 75.2 °F 60.8 °F 61% 29.86 in 6.2 mi WNW 9.2 mph - N/A   Scattered Clouds
10:45 AM 75.2 °F 60.8 °F 61% 29.86 in 6.2 mi West 15.0 mph - N/A   Scattered Clouds
10:55 AM 75.2 °F 60.8 °F 61% 29.86 in 6.2 mi West 15.0 mph - N/A   Scattered Clouds
11:00 AM 76 °F 61 °F 50% 29.86 in 12 mi West 15.0 mph - -   Partly Cloudy
11:15 AM 77.0 °F 59.0 °F 54% 29.83 in 6.2 mi West 16.1 mph - N/A   Scattered Clouds
11:45 AM 77.0 °F 59.0 °F 54% 29.86 in 6.2 mi West 15.0 mph - N/A   Scattered Clouds
11:55 AM 77.0 °F 59.0 °F 54% 29.86 in 6.2 mi West 15.0 mph - N/A   Scattered Clouds
12:15 PM 77.0 °F 59.0 °F 54% 29.86 in 6.2 mi West 13.8 mph - N/A   Scattered Clouds
12:45 PM 78.8 °F 60.8 °F 54% 29.83 in 6.2 mi West 19.6 mph - N/A   Scattered Clouds
12:55 PM 78.8 °F 60.8 °F 54% 29.83 in 6.2 mi West 19.6 mph - N/A   Scattered Clouds
1:15 PM 78.8 °F 60.8 °F 54% 29.83 in 6.2 mi West 13.8 mph - N/A   Scattered Clouds
1:45 PM 78.8 °F 60.8 °F 54% 29.83 in 6.2 mi West 15.0 mph - N/A   Scattered Clouds
1:55 PM 78.8 °F 60.8 °F 54% 29.83 in 6.2 mi West 15.0 mph - N/A   Scattered Clouds
2:00 PM 78 °F 61 °F 45% 29.85 in 12 mi West 15.0 mph - -   Mostly Cloudy
2:15 PM 78.8 °F 60.8 °F 54% 29.83 in 6.2 mi WNW 11.5 mph - N/A   Scattered Clouds
2:45 PM 78.8 °F 60.8 °F 54% 29.83 in 6.2 mi West 16.1 mph - N/A   Scattered Clouds
2:55 PM 78.8 °F 60.8 °F 54% 29.83 in 6.2 mi West 16.1 mph - N/A   Scattered Clouds
3:15 PM 78.8 °F 60.8 °F 54% 29.83 in 6.2 mi West 13.8 mph - N/A   Scattered Clouds
3:45 PM 78.8 °F 59.0 °F 51% 29.83 in 6.2 mi West 19.6 mph - N/A   Scattered Clouds
3:55 PM 78.8 °F 59.0 °F 51% 29.83 in 6.2 mi West 19.6 mph - N/A   Scattered Clouds
4:15 PM 78.8 °F 59.0 °F 51% 29.83 in 6.2 mi West 19.6 mph - N/A   Scattered Clouds
4:45 PM 78.8 °F 59.0 °F 51% 29.83 in 6.2 mi West 23.0 mph - N/A   Scattered Clouds
4:55 PM 78.8 °F 59.0 °F 51% 29.83 in 6.2 mi West 23.0 mph - N/A   Scattered Clouds
5:00 PM 79 °F 59 °F 40% 29.84 in 12 mi West 23.0 mph - -   Mostly Cloudy
5:15 PM 78.8 °F 60.8 °F 54% 29.83 in 6.2 mi West 16.1 mph - N/A   Scattered Clouds
5:45 PM 75.2 °F 62.6 °F 65% 29.83 in 6.2 mi WNW 23.0 mph - N/A   Scattered Clouds
5:55 PM 75.2 °F 62.6 °F 65% 29.83 in 6.2 mi WNW 23.0 mph - N/A   Scattered Clouds
6:15 PM 73.4 °F 60.8 °F 65% 29.83 in 6.2 mi West 17.3 mph - N/A   Scattered Clouds
6:45 PM 71.6 °F 60.8 °F 69% 29.83 in 6.2 mi West 16.1 mph - N/A   Scattered Clouds
6:55 PM 71.6 °F 60.8 °F 69% 29.83 in 6.2 mi West 16.1 mph - N/A   Scattered Clouds
7:15 PM 71.6 °F 60.8 °F 69% 29.83 in 6.2 mi West 13.8 mph - N/A   Scattered Clouds
7:45 PM 71.6 °F 60.8 °F 69% 29.86 in 6.2 mi West 12.7 mph - N/A   Scattered Clouds
7:55 PM 71.6 °F 60.8 °F 69% 29.86 in 6.2 mi West 12.7 mph - N/A   Scattered Clouds
8:00 PM 72 °F 61 °F 59% 29.86 in 9 mi West 12.7 mph - -   Partly Cloudy
8:15 PM 71.6 °F 60.8 °F 69% 29.86 in 6.2 mi West 9.2 mph - N/A   Scattered Clouds
8:45 PM 71.6 °F 62.6 °F 73% 29.86 in 6.2 mi WNW 6.9 mph - N/A   Scattered Clouds
8:55 PM 71.6 °F 62.6 °F 73% 29.86 in 6.2 mi WNW 6.9 mph - N/A   Scattered Clouds
9:15 PM 71.6 °F 60.8 °F 69% 29.89 in 6.2 mi West 9.2 mph - N/A Rain Light Rain
9:45 PM 69.8 °F 62.6 °F 78% 29.89 in 6.2 mi NW 4.6 mph - N/A   Partly Cloudy
9:55 PM 69.8 °F 62.6 °F 78% 29.89 in 6.2 mi NW 4.6 mph - N/A   Partly Cloudy
10:15 PM 68.0 °F 62.6 °F 83% 29.89 in 6.2 mi WNW 8.1 mph - N/A   Partly Cloudy
10:45 PM 68.0 °F 64.4 °F 88% 29.89 in 6.2 mi WNW 6.9 mph - N/A   Partly Cloudy
10:55 PM 68.0 °F 64.4 °F 88% 29.89 in 6.2 mi WNW 6.9 mph - N/A   Partly Cloudy
11:00 PM 68 °F 64 °F 81% 29.90 in 9 mi WNW 6.9 mph - -   Partly Cloudy
11:15 PM 68.0 °F 62.6 °F 83% 29.86 in 6.2 mi WNW 6.9 mph - N/A   Partly Cloudy
11:45 PM 68.0 °F 62.6 °F 83% 29.89 in 6.2 mi NW 5.8 mph - N/A   Partly Cloudy
11:55 PM 68.0 °F 62.6 °F 83% 29.89 in 6.2 mi NW 5.8 mph - N/A   Partly Cloudy